| time (UTC) | temp C | wind direction | speed KPH | gust KPH | rain 1hr cm | rain 24hr cm | rain mn cm | humidity % | barometer mb |
| 20260507185543 | 18 | 247 | 1.6 | 4.8 | 0.00 | 0.13 | 0.13 | 43 | 1009.9 |
| 20260507185039 | 17 | 348 | 0.0 | 1.6 | 0.00 | 0.13 | 0.13 | 45 | 1010.2 |
| 20260507184538 | 18 | 330 | 3.2 | 6.4 | 0.00 | 0.13 | 0.13 | 44 | 1010.0 |
| 20260507184035 | 18 | 321 | 3.2 | 3.2 | 0.00 | 0.13 | 0.13 | 44 | 1010.2 |
| 20260507183531 | 18 | 323 | 3.2 | 4.8 | 0.00 | 0.13 | 0.13 | 44 | 1009.9 |
| 20260507183028 | 18 | 353 | 3.2 | 4.8 | 0.00 | 0.13 | 0.13 | 43 | 1010.3 |
| 20260507182524 | 18 | 317 | 1.6 | 4.8 | 0.00 | 0.13 | 0.13 | 44 | 1010.1 |
| 20260507182020 | 18 | 322 | 3.2 | 9.7 | 0.00 | 0.13 | 0.13 | 45 | 1010.3 |
| 20260507181517 | 17 | 324 | 0.0 | 3.2 | 0.00 | 0.13 | 0.13 | 44 | 1010.2 |
| 20260507181014 | 18 | 321 | 1.6 | 4.8 | 0.00 | 0.13 | 0.13 | 44 | 1010.3 |
| 20260507180510 | 17 | 267 | 4.8 | 4.8 | 0.00 | 0.13 | 0.13 | 45 | 1010.3 |
| 20260507180007 | 17 | 298 | 1.6 | 4.8 | 0.00 | 0.13 | 0.13 | 45 | 1010.4 |
| 20260507175503 | 18 | 6 | 3.2 | 3.2 | 0.00 | 0.13 | 0.13 | 47 | 1010.4 |
| 20260507175001 | 17 | 308 | 3.2 | 6.4 | 0.00 | 0.13 | 0.13 | 45 | 1010.6 |
| 20260507174458 | 18 | 323 | 3.2 | 6.4 | 0.00 | 0.13 | 0.13 | 44 | 1010.5 |
| 20260507173955 | 18 | 276 | 1.6 | 4.8 | 0.00 | 0.13 | 0.13 | 47 | 1010.7 |
| 20260507173452 | 17 | 345 | 1.6 | 6.4 | 0.00 | 0.13 | 0.13 | 48 | 1010.6 |
| 20260507172949 | 17 | 317 | 3.2 | 9.7 | 0.00 | 0.13 | 0.13 | 50 | 1010.9 |
| 20260507172445 | 17 | 213 | 1.6 | 4.8 | 0.00 | 0.13 | 0.13 | 50 | 1011.0 |
| 20260507171942 | 17 | 62 | 3.2 | 9.7 | 0.00 | 0.13 | 0.13 | 50 | 1011.0 |
| 20260507171438 | 17 | 75 | 3.2 | 3.2 | 0.00 | 0.13 | 0.13 | 49 | 1011.2 |
| 20260507170935 | 17 | 314 | 1.6 | 6.4 | 0.00 | 0.13 | 0.13 | 51 | 1011.1 |
| 20260507170432 | 17 | 298 | 3.2 | 4.8 | 0.00 | 0.13 | 0.13 | 50 | 1011.4 |
| 20260507165928 | 17 | 81 | 4.8 | 11.3 | 0.00 | 0.13 | 0.13 | 52 | 1011.3 |
| 20260507165424 | 17 | 282 | 0.0 | 4.8 | 0.00 | 0.13 | 0.13 | 54 | 1011.4 |
| 20260507164920 | 17 | 302 | 1.6 | 3.2 | 0.00 | 0.13 | 0.13 | 53 | 1011.5 |
| 20260507164417 | 17 | 277 | 4.8 | 4.8 | 0.00 | 0.13 | 0.13 | 52 | 1011.5 |
| 20260507163914 | 17 | 342 | 1.6 | 3.2 | 0.00 | 0.13 | 0.13 | 53 | 1011.7 |
| 20260507163412 | 16 | 265 | 3.2 | 6.4 | 0.00 | 0.13 | 0.13 | 54 | 1011.8 |
| 20260507162908 | 16 | 299 | 0.0 | 4.8 | 0.00 | 0.13 | 0.13 | 54 | 1011.8 |
| 20260507162403 | 16 | 321 | 3.2 | 3.2 | 0.00 | 0.13 | 0.13 | 56 | 1011.8 |
| 20260507161901 | 16 | 272 | 1.6 | 3.2 | 0.00 | 0.13 | 0.13 | 56 | 1012.0 |
| 20260507161357 | 16 | 340 | 4.8 | 6.4 | 0.00 | 0.13 | 0.13 | 57 | 1012.0 |
| 20260507160854 | 16 | 335 | 3.2 | 4.8 | 0.00 | 0.13 | 0.13 | 59 | 1012.1 |
| 20260507160349 | 15 | 355 | 1.6 | 3.2 | 0.00 | 0.13 | 0.13 | 60 | 1012.0 |
| 20260507155846 | 15 | 281 | 6.4 | 14.5 | 0.00 | 0.13 | 0.13 | 58 | 1012.1 |
| 20260507155342 | 15 | 336 | 3.2 | 4.8 | 0.00 | 0.13 | 0.13 | 62 | 1012.1 |
| 20260507154839 | 15 | 307 | 3.2 | 4.8 | 0.00 | 0.13 | 0.13 | 61 | 1012.0 |
| 20260507154336 | 15 | 11 | 3.2 | 9.7 | 0.00 | 0.13 | 0.13 | 62 | 1012.2 |
| 20260507153833 | 15 | 344 | 3.2 | 4.8 | 0.00 | 0.13 | 0.13 | 61 | 1012.3 |
| 20260507153330 | 15 | 8 | 1.6 | 4.8 | 0.00 | 0.13 | 0.13 | 61 | 1012.3 |
| 20260507152826 | 15 | 314 | 3.2 | 11.3 | 0.00 | 0.13 | 0.13 | 63 | 1012.6 |
| 20260507152323 | 15 | 100 | 4.8 | 9.7 | 0.00 | 0.13 | 0.13 | 66 | 1012.6 |
| 20260507151819 | 14 | 300 | 1.6 | 6.4 | 0.00 | 0.13 | 0.13 | 67 | 1012.6 |
| 20260507151315 | 15 | 313 | 3.2 | 4.8 | 0.00 | 0.13 | 0.13 | 63 | 1012.7 |
| 20260507150812 | 15 | 343 | 3.2 | 9.7 | 0.00 | 0.13 | 0.13 | 66 | 1013.0 |
| 20260507150309 | 14 | 341 | 3.2 | 4.8 | 0.00 | 0.13 | 0.13 | 68 | 1013.0 |
| 20260507145805 | 14 | 301 | 3.2 | 4.8 | 0.00 | 0.13 | 0.13 | 70 | 1012.9 |
| 20260507145301 | 13 | 305 | 6.4 | 9.7 | 0.00 | 0.13 | 0.13 | 70 | 1012.9 |
| 20260507144759 | 14 | 328 | 3.2 | 4.8 | 0.00 | 0.13 | 0.13 | 70 | 1012.9 |
| 20260507144256 | 14 | 327 | 3.2 | 6.4 | 0.00 | 0.13 | 0.13 | 73 | 1012.8 |
| 20260507143752 | 13 | 329 | 1.6 | 3.2 | 0.00 | 0.13 | 0.13 | 75 | 1012.9 |
| 20260507143250 | 13 | 324 | 1.6 | 4.8 | 0.00 | 0.13 | 0.13 | 76 | 1013.3 |
| 20260507142745 | 13 | 26 | 3.2 | 4.8 | 0.00 | 0.13 | 0.13 | 77 | 1013.4 |
| 20260507142242 | 12 | 357 | 1.6 | 3.2 | 0.00 | 0.13 | 0.13 | 78 | 1013.3 |
| 20260507141739 | 12 | 314 | 3.2 | 9.7 | 0.00 | 0.13 | 0.13 | 77 | 1013.0 |
| 20260507141236 | 13 | 330 | 3.2 | 4.8 | 0.00 | 0.13 | 0.13 | 76 | 1013.1 |
| 20260507140732 | 12 | 330 | 1.6 | 6.4 | 0.00 | 0.13 | 0.13 | 77 | 1013.1 |
| 20260507140230 | 12 | 312 | 1.6 | 3.2 | 0.00 | 0.13 | 0.13 | 78 | 1013.2 |
| 20260507135726 | 12 | 15 | 1.6 | 6.4 | 0.00 | 0.13 | 0.13 | 81 | 1013.3 |
| 20260507135224 | 12 | 337 | 1.6 | 4.8 | 0.00 | 0.13 | 0.13 | 82 | 1013.2 |
| 20260507134720 | 12 | 252 | 1.6 | 3.2 | 0.00 | 0.13 | 0.13 | 83 | 1013.2 |
| 20260507134216 | 12 | 326 | 1.6 | 3.2 | 0.00 | 0.13 | 0.13 | 84 | 1013.4 |
| 20260507133712 | 12 | 323 | 1.6 | 3.2 | 0.00 | 0.13 | 0.13 | 84 | 1013.3 |
| 20260507133209 | 12 | 345 | 0.0 | 1.6 | 0.00 | 0.13 | 0.13 | 85 | 1013.3 |
| 20260507132707 | 12 | 312 | 1.6 | 3.2 | 0.00 | 0.13 | 0.13 | 88 | 1013.1 |
| 20260507132203 | 12 | 310 | 1.6 | 3.2 | 0.00 | 0.13 | 0.13 | 89 | 1013.3 |
| 20260507131700 | 12 | 311 | 1.6 | 3.2 | 0.00 | 0.13 | 0.13 | 90 | 1013.3 |
| 20260507131157 | 12 | 331 | 0.0 | 3.2 | 0.00 | 0.13 | 0.13 | 91 | 1013.4 |
| 20260507130654 | 12 | 274 | 3.2 | 4.8 | 0.00 | 0.13 | 0.13 | 91 | 1013.3 |
| 20260507130152 | 12 | 311 | 1.6 | 4.8 | 0.00 | 0.13 | 0.13 | 92 | 1013.1 |
| 20260507125650 | 12 | 333 | 1.6 | 6.4 | 0.00 | 0.13 | 0.13 | 92 | 1013.5 |
| 20260507125148 | 11 | 10 | 0.0 | 1.6 | 0.00 | 0.13 | 0.13 | 93 | 1013.4 |
| 20260507124643 | 12 | 292 | 1.6 | 6.4 | 0.00 | 0.13 | 0.13 | 92 | 1013.1 |
| 20260507124141 | 12 | 326 | 1.6 | 3.2 | 0.00 | 0.13 | 0.13 | 93 | 1013.2 |
| 20260507123639 | 12 | 324 | 0.0 | 1.6 | 0.00 | 0.13 | 0.13 | 94 | 1013.1 |
| 20260507123136 | 11 | 324 | 0.0 | 3.2 | 0.00 | 0.13 | 0.13 | 94 | 1013.3 |
| 20260507122631 | 11 | 305 | 0.0 | 3.2 | 0.00 | 0.13 | 0.13 | 94 | 1013.2 |
| 20260507122127 | 11 | 311 | 3.2 | 3.2 | 0.00 | 0.13 | 0.13 | 93 | 1013.1 |
| 20260507121624 | 11 | 333 | 1.6 | 3.2 | 0.00 | 0.13 | 0.13 | 94 | 1013.1 |
| 20260507121119 | 11 | 320 | 0.0 | 1.6 | 0.00 | 0.13 | 0.13 | 95 | 1013.0 |
| 20260507120616 | 11 | 329 | 0.0 | 1.6 | 0.00 | 0.13 | 0.13 | 95 | 1013.0 |
| 20260507120113 | 11 | 321 | 0.0 | 1.6 | 0.00 | 0.13 | 0.13 | 95 | 1013.0 |
| 20260507115609 | 11 | 327 | 0.0 | 0.0 | 0.00 | 0.13 | 0.13 | 96 | 1013.0 |
| 20260507115105 | 11 | 327 | 0.0 | 0.0 | 0.00 | 0.13 | 0.13 | 96 | 1013.1 |
| 20260507114601 | 11 | 325 | 0.0 | 1.6 | 0.00 | 0.13 | 0.13 | 97 | 1013.1 |
| 20260507114058 | 11 | 325 | 0.0 | 0.0 | 0.00 | 0.13 | 0.13 | 98 | 1013.4 |
| 20260507113555 | 11 | 343 | 0.0 | 0.0 | 0.00 | 0.13 | 0.13 | 99 | 1013.2 |
| 20260507113052 | 11 | 319 | 0.0 | 0.0 | 0.00 | 0.13 | 0.13 | 99 | 1012.9 |
| 20260507112550 | 10 | 319 | 0.0 | 0.0 | 0.00 | 0.13 | 0.13 | 99 | 1013.0 |
| 20260507112047 | 11 | 331 | 0.0 | 0.0 | 0.00 | 0.13 | 0.13 | 99 | 1012.8 |
| 20260507111544 | 10 | 337 | 0.0 | 0.0 | 0.00 | 0.13 | 0.13 | 99 | 1012.8 |
| 20260507111041 | 10 | 342 | 0.0 | 1.6 | 0.00 | 0.13 | 0.13 | 99 | 1012.6 |
| 20260507110537 | 10 | 329 | 0.0 | 0.0 | 0.00 | 0.13 | 0.13 | 99 | 1012.6 |
| 20260507110033 | 10 | 307 | 0.0 | 0.0 | 0.00 | 0.13 | 0.13 | 99 | 1012.7 |
| 20260507105531 | 10 | 307 | 0.0 | 0.0 | 0.00 | 0.13 | 0.13 | 99 | 1012.5 |
| 20260507105026 | 10 | 307 | 0.0 | 0.0 | 0.00 | 0.13 | 0.13 | 99 | 1012.1 |
| 20260507104524 | 10 | 307 | 0.0 | 0.0 | 0.00 | 0.13 | 0.13 | 99 | 1012.3 |
| 20260507104020 | 10 | 307 | 0.0 | 0.0 | 0.00 | 0.13 | 0.13 | 99 | 1012.4 |
| 20260507103516 | 10 | 307 | 0.0 | 0.0 | 0.00 | 0.13 | 0.13 | 99 | 1012.1 |
| 20260507103013 | 10 | 307 | 0.0 | 0.0 | 0.00 | 0.13 | 0.13 | 99 | 1012.1 |
| 20260507102510 | 10 | 307 | 0.0 | 0.0 | 0.00 | 0.13 | 0.13 | 99 | 1012.0 |
| 20260507102007 | 10 | 307 | 0.0 | 0.0 | 0.00 | 0.13 | 0.13 | 99 | 1011.9 |
| 20260507101501 | 10 | 315 | 0.0 | 0.0 | 0.00 | 0.13 | 0.13 | 99 | 1011.7 |
| 20260507100958 | 10 | 315 | 0.0 | 0.0 | 0.00 | 0.13 | 0.13 | 99 | 1012.0 |
| 20260507100455 | 10 | 315 | 0.0 | 0.0 | 0.00 | 0.13 | 0.13 | 99 | 1011.9 |
| 20260507095953 | 10 | 2 | 0.0 | 0.0 | 0.00 | 0.13 | 0.13 | 99 | 1011.9 |
| 20260507095451 | 10 | 2 | 0.0 | 0.0 | 0.00 | 0.13 | 0.13 | 99 | 1011.8 |
| 20260507094948 | 10 | 324 | 0.0 | 0.0 | 0.00 | 0.13 | 0.13 | 99 | 1011.9 |
| 20260507094444 | 10 | 324 | 0.0 | 0.0 | 0.00 | 0.13 | 0.13 | 99 | 1012.0 |
| 20260507093941 | 10 | 326 | 0.0 | 1.6 | 0.00 | 0.13 | 0.13 | 99 | 1012.0 |
| 20260507093439 | 10 | 326 | 0.0 | 1.6 | 0.00 | 0.13 | 0.13 | 99 | 1011.8 |
| 20260507092937 | 10 | 72 | 3.2 | 3.2 | 0.00 | 0.13 | 0.13 | 99 | 1011.7 |
| 20260507092433 | 10 | 5 | 0.0 | 0.0 | 0.00 | 0.13 | 0.13 | 99 | 1011.9 |
| 20260507091930 | 10 | 8 | 0.0 | 1.6 | 0.00 | 0.13 | 0.13 | 99 | 1011.6 |
| 20260507091426 | 10 | 332 | 1.6 | 1.6 | 0.00 | 0.13 | 0.13 | 99 | 1011.7 |
| 20260507090922 | 10 | 331 | 0.0 | 0.0 | 0.00 | 0.13 | 0.13 | 99 | 1011.7 |
| 20260507090418 | 10 | 331 | 0.0 | 1.6 | 0.00 | 0.13 | 0.13 | 99 | 1011.8 |
| 20260507085915 | 10 | 26 | 0.0 | 3.2 | 0.00 | 0.13 | 0.13 | 99 | 1011.7 |
| 20260507085412 | 10 | 344 | 0.0 | 1.6 | 0.00 | 0.13 | 0.13 | 99 | 1011.7 |
| 20260507084909 | 10 | 319 | 0.0 | 0.0 | 0.00 | 0.13 | 0.13 | 99 | 1011.6 |
| 20260507084406 | 10 | 309 | 1.6 | 4.8 | 0.00 | 0.13 | 0.13 | 99 | 1011.5 |
| 20260507083903 | 10 | 318 | 1.6 | 3.2 | 0.00 | 0.13 | 0.13 | 99 | 1011.4 |
| 20260507083359 | 10 | 310 | 0.0 | 1.6 | 0.00 | 0.13 | 0.13 | 99 | 1011.3 |
| 20260507082855 | 10 | 319 | 3.2 | 4.8 | 0.00 | 0.13 | 0.13 | 99 | 1011.3 |
| 20260507082351 | 10 | 316 | 3.2 | 4.8 | 0.00 | 0.13 | 0.13 | 99 | 1011.3 |
| 20260507081849 | 10 | 338 | 1.6 | 1.6 | 0.00 | 0.13 | 0.13 | 99 | 1011.3 |
| 20260507081345 | 10 | 314 | 3.2 | 4.8 | 0.00 | 0.13 | 0.13 | 99 | 1011.4 |
| 20260507080842 | 10 | 320 | 1.6 | 4.8 | 0.00 | 0.13 | 0.13 | 99 | 1011.4 |
| 20260507080338 | 10 | 317 | 0.0 | 4.8 | 0.00 | 0.13 | 0.13 | 99 | 1011.4 |
| 20260507075833 | 10 | 356 | 0.0 | 0.0 | 0.00 | 0.13 | 0.13 | 99 | 1011.5 |
| 20260507075329 | 10 | 327 | 3.2 | 3.2 | 0.00 | 0.13 | 0.13 | 99 | 1011.3 |
| 20260507074826 | 10 | 323 | 3.2 | 4.8 | 0.00 | 0.13 | 0.13 | 99 | 1011.5 |
| 20260507074324 | 10 | 340 | 1.6 | 3.2 | 0.00 | 0.13 | 0.13 | 99 | 1011.6 |
| 20260507073821 | 10 | 300 | 3.2 | 9.7 | 0.00 | 0.13 | 0.13 | 99 | 1011.5 |
| 20260507073317 | 10 | 303 | 4.8 | 6.4 | 0.00 | 0.13 | 0.13 | 99 | 1011.6 |
| 20260507072814 | 10 | 317 | 3.2 | 4.8 | 0.00 | 0.13 | 0.13 | 99 | 1011.6 |
| 20260507072312 | 10 | 317 | 3.2 | 4.8 | 0.00 | 0.13 | 0.13 | 99 | 1011.6 |
| 20260507071809 | 10 | 319 | 1.6 | 4.8 | 0.00 | 0.13 | 0.13 | 99 | 1012.0 |
| 20260507071306 | 10 | 292 | 0.0 | 4.8 | 0.00 | 0.13 | 0.13 | 99 | 1012.0 |
| 20260507070802 | 11 | 310 | 4.8 | 4.8 | 0.00 | 0.13 | 0.13 | 99 | 1011.8 |
| 20260507070300 | 11 | 318 | 0.0 | 1.6 | 0.00 | 0.13 | 0.13 | 99 | 1011.7 |
| 20260507065756 | 11 | 339 | 3.2 | 4.8 | 0.00 | 0.13 | 0.13 | 99 | 1011.7 |
| 20260507065253 | 11 | 322 | 3.2 | 6.4 | 0.00 | 0.13 | 0.13 | 99 | 1011.4 |
| 20260507064750 | 11 | 339 | 4.8 | 9.7 | 0.00 | 0.13 | 0.13 | 99 | 1011.5 |
| 20260507064249 | 11 | 320 | 3.2 | 4.8 | 0.00 | 0.13 | 0.13 | 99 | 1011.5 |
| 20260507063746 | 11 | 310 | 1.6 | 3.2 | 0.00 | 0.13 | 0.13 | 99 | 1011.4 |
| 20260507063243 | 11 | 314 | 4.8 | 4.8 | 0.00 | 0.13 | 0.13 | 99 | 1011.0 |
| 20260507062740 | 11 | 313 | 1.6 | 4.8 | 0.00 | 0.13 | 0.13 | 99 | 1011.1 |
| 20260507062237 | 11 | 318 | 0.0 | 1.6 | 0.00 | 0.13 | 0.13 | 99 | 1011.3 |
| 20260507061735 | 12 | 304 | 3.2 | 3.2 | 0.18 | 0.13 | 0.13 | 99 | 1011.3 |
| 20260507061232 | 12 | 327 | 3.2 | 3.2 | 0.18 | 0.13 | 0.13 | 99 | 1011.4 |
| 20260507060731 | 12 | 313 | 1.6 | 3.2 | 0.00 | 0.10 | 0.10 | 99 | 1011.6 |
| 20260507060227 | 12 | 280 | 1.6 | 3.2 | 0.43 | 0.10 | 0.10 | 99 | 1011.5 |
| 20260507055723 | 12 | 303 | 3.2 | 4.8 | 0.61 | 0.10 | 0.10 | 99 | 1011.4 |
| 20260507055218 | 13 | 285 | 3.2 | 4.8 | 0.18 | 0.03 | 0.03 | 98 | 1011.6 |
| 20260507054715 | 13 | 307 | 4.8 | 6.4 | 0.00 | 0.00 | 0.00 | 95 | 1011.3 |
| 20260507054212 | 13 | 309 | 3.2 | 4.8 | 0.00 | 0.00 | 0.00 | 94 | 1011.3 |
| 20260507053710 | 13 | 353 | 3.2 | 4.8 | 0.00 | 0.00 | 0.00 | 94 | 1010.5 |
| 20260507053207 | 13 | 313 | 1.6 | 3.2 | 0.00 | 0.00 | 0.00 | 95 | 1010.4 |
| 20260507052706 | 13 | 311 | 3.2 | 4.8 | 0.00 | 0.00 | 0.00 | 95 | 1011.3 |
| 20260507052201 | 13 | 320 | 3.2 | 3.2 | 0.00 | 0.00 | 0.00 | 96 | 1010.9 |
| 20260507051700 | 14 | 306 | 0.0 | 1.6 | 0.00 | 0.00 | 0.00 | 96 | 1010.9 |
| 20260507051155 | 14 | 327 | 0.0 | 3.2 | 0.00 | 0.00 | 0.00 | 95 | 1010.9 |
| 20260507050653 | 14 | 326 | 1.6 | 3.2 | 0.00 | 0.00 | 0.00 | 96 | 1010.7 |
| 20260507050149 | 14 | 310 | 1.6 | 3.2 | 0.00 | 0.00 | 0.00 | 96 | 1010.5 |
| 20260507045646 | 14 | 323 | 1.6 | 3.2 | 0.00 | 0.00 | 0.00 | 96 | 1010.0 |
| 20260507045143 | 14 | 332 | 0.0 | 1.6 | 0.00 | 0.00 | 0.00 | 96 | 1010.0 |
| 20260507044640 | 14 | 356 | 0.0 | 3.2 | 0.00 | 0.00 | 0.00 | 96 | 1010.1 |
| 20260507044137 | 14 | 319 | 1.6 | 3.2 | 0.00 | 0.00 | 0.00 | 96 | 1010.2 |
| 20260507043633 | 14 | 311 | 3.2 | 4.8 | 0.00 | 0.00 | 0.00 | 96 | 1010.5 |
| 20260507043130 | 14 | 312 | 1.6 | 6.4 | 0.00 | 0.00 | 0.00 | 97 | 1010.5 |
| 20260507042626 | 14 | 312 | 4.8 | 4.8 | 0.00 | 0.00 | 0.00 | 97 | 1010.3 |
| 20260507042121 | 15 | 300 | 0.0 | 4.8 | 0.00 | 0.00 | 0.00 | 97 | 1010.0 |
| 20260507041618 | 15 | 340 | 1.6 | 4.8 | 0.00 | 0.00 | 0.00 | 98 | 1010.4 |
| 20260507041115 | 15 | 308 | 6.4 | 9.7 | 0.00 | 0.00 | 0.00 | 98 | 1010.4 |
| 20260507040612 | 17 | 316 | 6.4 | 12.9 | 0.00 | 0.00 | 0.00 | 99 | 1010.3 |
| 20260507040109 | 17 | 333 | 0.0 | 0.0 | 0.00 | 0.03 | 0.03 | 99 | 1010.0 |
| 20260507035604 | 17 | 308 | 0.0 | 1.6 | 0.00 | 0.03 | 0.03 | 99 | 1009.9 |
| 20260507035101 | 17 | 320 | 3.2 | 4.8 | 0.00 | 0.03 | 0.03 | 98 | 1009.9 |
| 20260507034557 | 17 | 310 | 1.6 | 3.2 | 0.00 | 0.03 | 0.03 | 98 | 1010.0 |
| 20260507034056 | 18 | 288 | 1.6 | 1.6 | 0.00 | 0.03 | 0.03 | 99 | 1010.1 |
| 20260507033553 | 18 | 318 | 0.0 | 3.2 | 0.00 | 0.03 | 0.03 | 98 | 1010.3 |
| 20260507033050 | 18 | 329 | 3.2 | 3.2 | 0.00 | 0.03 | 0.03 | 97 | 1010.1 |
| 20260507032547 | 18 | 358 | 0.0 | 0.0 | 0.00 | 0.03 | 0.03 | 95 | 1009.9 |
| 20260507032043 | 18 | 358 | 0.0 | 0.0 | 0.00 | 0.03 | 0.03 | 95 | 1009.7 |
| 20260507031540 | 18 | 33 | 0.0 | 0.0 | 0.00 | 0.03 | 0.03 | 95 | 1009.5 |
| 20260507031037 | 18 | 102 | 0.0 | 0.0 | 0.00 | 0.03 | 0.03 | 95 | 1009.5 |
| 20260507030534 | 18 | 185 | 0.0 | 0.0 | 0.00 | 0.03 | 0.03 | 95 | 1009.6 |
| 20260507030032 | 18 | 160 | 0.0 | 0.0 | 0.00 | 0.03 | 0.03 | 95 | 1009.5 |
| 20260507025528 | 18 | 208 | 0.0 | 0.0 | 0.00 | 0.03 | 0.03 | 95 | 1009.6 |
| 20260507025026 | 18 | 87 | 0.0 | 0.0 | 0.00 | 0.03 | 0.03 | 95 | 1009.9 |
| 20260507024523 | 18 | 231 | 0.0 | 0.0 | 0.00 | 0.03 | 0.03 | 95 | 1009.8 |
| 20260507024020 | 18 | 194 | 1.6 | 1.6 | 0.00 | 0.03 | 0.03 | 95 | 1009.8 |
| 20260507023516 | 18 | 43 | 0.0 | 0.0 | 0.00 | 0.03 | 0.03 | 95 | 1009.5 |
| 20260507023014 | 18 | 204 | 0.0 | 1.6 | 0.00 | 0.03 | 0.03 | 95 | 1009.5 |
| 20260507022511 | 18 | 176 | 0.0 | 1.6 | 0.00 | 0.03 | 0.03 | 95 | 1009.5 |
| 20260507022006 | 18 | 152 | 0.0 | 0.0 | 0.00 | 0.03 | 0.03 | 95 | 1009.7 |
| 20260507021502 | 18 | 203 | 0.0 | 1.6 | 0.00 | 0.03 | 0.03 | 95 | 1009.7 |
| 20260507020959 | 18 | 172 | 0.0 | 4.8 | 0.00 | 0.03 | 0.03 | 96 | 1009.7 |
| 20260507020456 | 18 | 198 | 1.6 | 3.2 | 0.00 | 0.03 | 0.03 | 96 | 1009.8 |
| 20260507015952 | 18 | 127 | 0.0 | 1.6 | 0.00 | 0.03 | 0.03 | 95 | 1009.8 |
| 20260507015451 | 18 | 16 | 0.0 | 1.6 | 0.00 | 0.03 | 0.03 | 95 | 1009.8 |
| 20260507014948 | 18 | 237 | 3.2 | 6.4 | 0.00 | 0.03 | 0.03 | 94 | 1009.8 |
| 20260507014444 | 18 | 214 | 0.0 | 0.0 | 0.00 | 0.03 | 0.03 | 94 | 1009.7 |
| 20260507013940 | 18 | 165 | 0.0 | 1.6 | 0.00 | 0.03 | 0.03 | 94 | 1009.8 |
| 20260507013437 | 18 | 233 | 1.6 | 4.8 | 0.00 | 0.03 | 0.03 | 93 | 1009.7 |
| 20260507012935 | 18 | 202 | 0.0 | 1.6 | 0.00 | 0.03 | 0.03 | 93 | 1009.8 |
| 20260507012431 | 18 | 189 | 0.0 | 1.6 | 0.00 | 0.03 | 0.03 | 93 | 1009.9 |
| 20260507011923 | 18 | 212 | 0.0 | 6.4 | 0.00 | 0.03 | 0.03 | 93 | 1009.8 |
| 20260507011420 | 18 | 117 | 0.0 | 0.0 | 0.00 | 0.03 | 0.03 | 93 | 1009.7 |
| 20260507010919 | 18 | 283 | 0.0 | 1.6 | 0.00 | 0.03 | 0.03 | 93 | 1009.8 |
| 20260507010414 | 18 | 117 | 0.0 | 0.0 | 0.00 | 0.03 | 0.03 | 93 | 1009.8 |
| 20260507005912 | 18 | 217 | 0.0 | 1.6 | 0.00 | 0.03 | 0.03 | 93 | 1010.1 |
| 20260507005409 | 18 | 160 | 0.0 | 3.2 | 0.00 | 0.03 | 0.03 | 93 | 1009.8 |
| 20260507004905 | 18 | 186 | 0.0 | 1.6 | 0.00 | 0.03 | 0.03 | 94 | 1010.0 |
| 20260507004402 | 18 | 162 | 0.0 | 0.0 | 0.00 | 0.03 | 0.03 | 93 | 1009.7 |
| 20260507003900 | 18 | 144 | 0.0 | 0.0 | 0.00 | 0.03 | 0.03 | 92 | 1009.2 |
| 20260507003355 | 18 | 163 | 1.6 | 3.2 | 0.00 | 0.03 | 0.03 | 92 | 1009.2 |
| 20260507002850 | 19 | 160 | 1.6 | 3.2 | 0.00 | 0.03 | 0.03 | 91 | 1009.3 |
| 20260507002347 | 19 | 217 | 0.0 | 0.0 | 0.00 | 0.03 | 0.03 | 91 | 1009.0 |
| 20260507001844 | 19 | 212 | 0.0 | 1.6 | 0.00 | 0.03 | 0.03 | 90 | 1009.1 |
| 20260507001341 | 19 | 113 | 0.0 | 0.0 | 0.00 | 0.03 | 0.03 | 90 | 1009.1 |
| 20260507000837 | 20 | 144 | 0.0 | 0.0 | 0.00 | 0.03 | 0.03 | 89 | 1009.1 |
| 20260507000333 | 20 | 230 | 3.2 | 4.8 | 0.00 | 0.03 | 0.03 | 89 | 1009.0 |
| 20260506235829 | 20 | 100 | 0.0 | 3.2 | 0.00 | 0.03 | 0.03 | 89 | 1009.1 |
| 20260506235326 | 20 | 183 | 0.0 | 0.0 | 0.00 | 0.03 | 0.03 | 88 | 1008.9 |
| 20260506234822 | 20 | 159 | 0.0 | 1.6 | 0.00 | 0.03 | 0.03 | 88 | 1009.0 |
| 20260506234320 | 20 | 139 | 0.0 | 11.3 | 0.00 | 0.03 | 0.03 | 87 | 1008.9 |
| 20260506233818 | 20 | 240 | 4.8 | 4.8 | 0.00 | 0.03 | 0.03 | 87 | 1008.9 |
| 20260506233313 | 20 | 190 | 0.0 | 6.4 | 0.00 | 0.03 | 0.03 | 87 | 1008.9 |
| 20260506232810 | 20 | 163 | 0.0 | 3.2 | 0.00 | 0.03 | 0.03 | 86 | 1008.9 |
| 20260506232306 | 20 | 263 | 0.0 | 4.8 | 0.00 | 0.03 | 0.03 | 86 | 1009.0 |
| 20260506231802 | 20 | 272 | 0.0 | 1.6 | 0.00 | 0.03 | 0.03 | 86 | 1009.1 |
| 20260506231301 | 21 | 179 | 4.8 | 4.8 | 0.00 | 0.03 | 0.03 | 85 | 1009.0 |
| 20260506230759 | 21 | 190 | 4.8 | 6.4 | 0.00 | 0.03 | 0.03 | 85 | 1009.0 |
| 20260506230255 | 21 | 195 | 0.0 | 1.6 | 0.00 | 0.03 | 0.03 | 85 | 1008.9 |
| 20260506225751 | 21 | 236 | 3.2 | 9.7 | 0.00 | 0.03 | 0.03 | 84 | 1008.9 |
| 20260506225248 | 21 | 161 | 0.0 | 4.8 | 0.00 | 0.03 | 0.03 | 85 | 1008.8 |
| 20260506224744 | 20 | 255 | 3.2 | 6.4 | 0.00 | 0.03 | 0.03 | 85 | 1008.9 |
| 20260506224242 | 20 | 193 | 4.8 | 11.3 | 0.00 | 0.03 | 0.03 | 86 | 1009.0 |
| 20260506223738 | 20 | 167 | 4.8 | 4.8 | 0.00 | 0.03 | 0.03 | 86 | 1008.8 |
| 20260506223234 | 20 | 215 | 3.2 | 9.7 | 0.00 | 0.03 | 0.03 | 85 | 1008.9 |
| 20260506222731 | 20 | 91 | 1.6 | 1.6 | 0.00 | 0.03 | 0.03 | 86 | 1008.8 |
| 20260506222226 | 20 | 139 | 3.2 | 4.8 | 0.00 | 0.03 | 0.03 | 86 | 1008.7 |
| 20260506221724 | 20 | 78 | 0.0 | 1.6 | 0.00 | 0.03 | 0.03 | 86 | 1008.6 |
| 20260506221222 | 20 | 109 | 3.2 | 4.8 | 0.00 | 0.03 | 0.03 | 85 | 1008.9 |
| 20260506220719 | 20 | 150 | 6.4 | 11.3 | 0.00 | 0.03 | 0.03 | 86 | 1008.8 |
| 20260506220214 | 20 | 182 | 4.8 | 6.4 | 0.00 | 0.03 | 0.03 | 85 | 1008.9 |
| 20260506215711 | 20 | 77 | 1.6 | 6.4 | 0.00 | 0.03 | 0.03 | 85 | 1008.8 |
| 20260506215206 | 20 | 279 | 1.6 | 4.8 | 0.00 | 0.03 | 0.03 | 84 | 1008.8 |
| 20260506214703 | 21 | 146 | 6.4 | 14.5 | 0.00 | 0.03 | 0.03 | 84 | 1008.8 |
| 20260506214200 | 20 | 252 | 0.0 | 9.7 | 0.00 | 0.03 | 0.03 | 85 | 1008.7 |
| 20260506213659 | 20 | 255 | 1.6 | 3.2 | 0.00 | 0.03 | 0.03 | 85 | 1008.7 |
| 20260506213156 | 21 | 73 | 8.0 | 14.5 | 0.00 | 0.03 | 0.03 | 83 | 1008.5 |
| 20260506212653 | 21 | 302 | 1.6 | 6.4 | 0.00 | 0.03 | 0.03 | 84 | 1008.6 |
| 20260506212148 | 21 | 154 | 1.6 | 6.4 | 0.00 | 0.03 | 0.03 | 84 | 1008.6 |
| 20260506211643 | 20 | 309 | 1.6 | 12.9 | 0.00 | 0.03 | 0.03 | 84 | 1008.5 |
| 20260506211141 | 20 | 255 | 1.6 | 12.9 | 0.00 | 0.03 | 0.03 | 84 | 1008.7 |
| 20260506210638 | 21 | 73 | 0.0 | 6.4 | 0.00 | 0.03 | 0.03 | 84 | 1008.5 |
| 20260506210134 | 21 | 155 | 4.8 | 4.8 | 0.00 | 0.03 | 0.03 | 82 | 1008.6 |
| 20260506205631 | 21 | 282 | 4.8 | 9.7 | 0.00 | 0.03 | 0.03 | 82 | 1008.4 |
| 20260506205126 | 21 | 314 | 1.6 | 6.4 | 0.00 | 0.03 | 0.03 | 83 | 1008.2 |
| 20260506204624 | 20 | 189 | 1.6 | 9.7 | 0.00 | 0.03 | 0.03 | 84 | 1008.3 |
| 20260506204121 | 21 | 282 | 8.0 | 11.3 | 0.00 | 0.03 | 0.03 | 83 | 1008.3 |
| 20260506203619 | 20 | 232 | 3.2 | 12.9 | 0.00 | 0.03 | 0.03 | 84 | 1008.4 |
| 20260506203115 | 20 | 293 | 1.6 | 14.5 | 0.00 | 0.03 | 0.03 | 85 | 1008.4 |
| 20260506202613 | 20 | 163 | 4.8 | 20.9 | 0.00 | 0.03 | 0.03 | 85 | 1008.3 |
| 20260506202109 | 20 | 148 | 4.8 | 6.4 | 0.00 | 0.03 | 0.03 | 86 | 1008.3 |
| 20260506201607 | 20 | 202 | 3.2 | 6.4 | 0.00 | 0.03 | 0.03 | 86 | 1008.5 |
| 20260506201103 | 20 | 168 | 4.8 | 16.1 | 0.00 | 0.03 | 0.03 | 86 | 1008.5 |
| 20260506200559 | 20 | 248 | 9.7 | 12.9 | 0.00 | 0.03 | 0.03 | 86 | 1008.4 |
| 20260506200056 | 20 | 222 | 1.6 | 9.7 | 0.00 | 0.03 | 0.03 | 86 | 1008.4 |
| 20260506195553 | 20 | 232 | 6.4 | 16.1 | 0.00 | 0.03 | 0.03 | 86 | 1008.5 |
| 20260506195049 | 20 | 81 | 6.4 | 9.7 | 0.00 | 0.03 | 0.03 | 86 | 1008.7 |
| 20260506194547 | 20 | 128 | 4.8 | 12.9 | 0.00 | 0.03 | 0.03 | 86 | 1008.8 |
| 20260506194043 | 19 | 199 | 0.0 | 4.8 | 0.00 | 0.03 | 0.03 | 88 | 1008.9 |
| 20260506193541 | 19 | 175 | 4.8 | 6.4 | 0.00 | 0.03 | 0.03 | 88 | 1008.9 |
| 20260506193038 | 19 | 272 | 0.0 | 9.7 | 0.00 | 0.03 | 0.03 | 88 | 1009.1 |
| 20260506192535 | 19 | 236 | 8.0 | 17.7 | 0.00 | 0.03 | 0.03 | 88 | 1009.0 |
| 20260506192030 | 19 | 201 | 6.4 | 16.1 | 0.00 | 0.03 | 0.03 | 88 | 1009.0 |
| 20260506191527 | 19 | 283 | 1.6 | 12.9 | 0.00 | 0.03 | 0.03 | 88 | 1009.0 |
| 20260506191024 | 19 | 197 | 8.0 | 12.9 | 0.00 | 0.03 | 0.03 | 88 | 1009.0 |
| 20260506190521 | 19 | 182 | 3.2 | 12.9 | 0.00 | 0.03 | 0.03 | 88 | 1009.0 |